Location: Czu?�w
(50.1404°N, 18.9919°E)
Time: 03:23:25
(UTC+00:00)

Cosmos 292 Rocket - Pass Details

Date: 27 October 2020
Orbit: 672 x 695 km, 74.0° (Epoch: 24 November)

Event Time Altitude Azimuth Distance (km) Brightness Sun altitude
Rises 16:37:10 0° 198° (SSW) 3,028 7.5 -11.5°
Reaches altitude 10° 16:39:26 10° 197° (SSW) 2,120 6.6 -11.9°
Maximum altitude 16:44:13 80° 111° (ESE) 703 3.7 -12.6°
Drops below altitude 10° 16:49:04 10° 26° (NNE) 2,151 6.0 -13.4°
Sets 16:51:23 0° 25° (NNE) 3,075 6.8 -13.8°
